User: anonymous   Login
Location: Unspecified
(0.0000°N, 0.0000°E)
Time: 23:17:33
(UTC+00:00)
Language:

STARLINK-5474 - Orbit

View from above orbital plane
View from above orbital plane
View from above satellite
View from above satellite

Ground track
Ground track

The orbit is defined by the following mean orbital elements,

1 55665U          26145.51772348 +.00000000 +00000-0 +57972-4 0 00009
2 55665  69.9994 330.7045 0002878 269.1559  90.9270 14.98334237    00
Epoch (UTC): 25 May 2026 12:25:31
Eccentricity: 0.0002878
inclination: 69.9994°
perigee height: 570 km
apogee height: 574 km
right ascension of ascending node: 330.7045°
argument of perigee: 269.1559°
revolutions per day: 14.98334237
mean anomaly at epoch: 90.9270°

The dashed part of the orbit path shows where the satellite is in the earth's shadow,  

DLR